Regional Weather Roundup
Issued by NWS

Home | Current Version | Previous Version | Text Only | Print | Product List | Glossary On
Versions: 1 2 3 4 5 6 7 8 9 10 11 12 13 14 15 16 17 18 19 20 21 22 23 24 25 26 27 28 29 30 31 32 33 34 35 36 37 38 39 40 41 42 43 44 45 46 47 48 49 50
693
ASUS43 KBIS 121410
RWRND

NORTH DAKOTA REGIONAL WEATHER ROUNDUP
NATIONAL WEATHER SERVICE BISMARCK ND
800 AM CST FRI FEB 12 2016

NOTE: "FAIR" INDICATES FEW OR NO CLOUDS BELOW 12,000 FEET WITH NO
SIGNIFICANT WEATHER AND/OR OBSTRUCTIONS TO VISIBILITY.


NDZ001>003-009>011-017-121500-
NORTHWEST NORTH DAKOTA

CITY           SKY/WX    TMP DP  RH WIND       PRES   REMARKS
WILLISTON      PTCLDY     0  -5  79 CALM      30.54R
MINOT          PTCLDY    -3 -12  65 NW9       30.56R WCI -19
MINOT AFB      CLOUDY    -6 -12  73 NW2       30.56R
$$

NDZ018>021-031>035-040>046-121500-
SOUTHWEST NORTH DAKOTA

CITY           SKY/WX    TMP DP  RH WIND       PRES   REMARKS
BISMARCK       CLOUDY     5  -3  69 N9        30.54R WCI  -9
DICKINSON      FLURRIES   9   5  84 NE13      30.42R WCI  -7
GARRISON         N/A     -2  -8  76 VRB6      30.52R WCI -14
HETTINGER ARPT CLOUDY    18  13  80 NE8       30.42R WCI   8
$$

NDZ004>008-012>016-024-026-027-054-121500-
NORTHEAST NORTH DAKOTA

CITY           SKY/WX    TMP DP  RH WIND       PRES   REMARKS
GRAND FORKS    PTCLDY    -3 -13  62 N23       30.57R WCI -27
GRND FRKS AFB  MOCLDY    -4 -13  63 N13       30.57R WCI -23
DEVILS LAKE    PTCLDY   -11 -16  78 N13       30.55R WCI -32
$$

NDZ022-023-025-028>030-036>039-047>053-121500-
SOUTHEAST NORTH DAKOTA

CITY           SKY/WX    TMP DP  RH WIND       PRES   REMARKS
FARGO          CLEAR      0  -8  69 N17       30.54R WCI -21
JAMESTOWN      CLOUDY    -1  -8  72 N9        30.52R WCI -16
$$





USA.gov is the U.S. government's official web portal to all federal, state and local government web resources and services.